www.pogodaiklimat.ru

Погода и климат >> Архив погоды >> Канада >> Chris Hadfield


ПОГОДА в Chris Hadfield

  • Прогноз погоды в Chris Hadfield
  • Монитор погоды в Chris Hadfield
  • Климат города

АРХИВ ПОГОДЫ в Chris Hadfield

Время (UTC), дата Ветер
(напр.,м/с)
 
Видим.   Явления Облачность Т
(С)
Тd
(С)
f
(%)
Тe
(С)
Тes
(С)
Комфортность P
(гПа)
Po
(гПа)
Тmin
(С)
Tmax
(С)
R
(мм)
R24
(мм)
S
(см)
00 14.05 С 2 16 км ясно +12.2 +5.4 63 +12 +15 1014.9 993.0 +6.1 +15.7
03 14.05 Ю 3 16 км ясно +12.7 +10.4 86 +11 +13 1015.3 993.5
06 14.05 ЮЗ 3 6000 м дымка ясно +12.0 +11.5 97 +10 +11 1014.6 992.9 +6.1 +15.7
09 14.05 Ю 2 2800 м дымка 5/5 100 м
[]
+10.6 +10.5 99 +9 +10 1014.2 992.4
12 14.05 ЮЗ 2 100 м туман н/о +12.3 +12.3 100 +12 +12 1014.8 993.0 +10.5 +15.7
15 14.05 Ю 3 16 км 9/9 1500 м
[]
+16.3 +14.6 90 +16 +16 1015.5 993.8
18 14.05 ЮЗ 4 16 км 3/0
[]
+20.7 +16.0 74 +24 +28 комфорт 1013.3 991.7 +10.5 +20.8
21 14.05 Ю 4 16 км 5/5 600 м
[]
+21.7 +16.6 73 +26 +27 душно 1010.2 988.7
00 15.05 Ю 4 16 км ясно +21.0 +16.7 76 +25 +27 комфорт 1010.3 988.8 +10.5 +22.9
03 15.05 Ю 3 11 км 3/0
[]
+17.8 +16.7 93 +18 +19 1009.9 988.4
06 15.05 Ю 3 9000 м дымка 10/10 1000 м
[]
+18.0 +17.0 94 +18 +18 1009.5 988.1 +10.5 +22.9 0.3 23
09 15.05 Ю 2 6000 м слаб. дождь {осадки} 10/0
[]
+17.1 +16.8 98 +18 +18 1008.6 987.2
12 15.05 З 2 8000 м дымка {осадки} 10/10 300 м
[]
+17.9 +17.6 98 +18 +18 1009.7 988.3 +17.0 +22.9 2
15 15.05 С 3 16 км {осадки} 10/10 50 м
[]
+10.7 +10.7 100 +8 +8 1013.4 991.7
18 15.05 С 5 14 км {осадки} 9/9 100 м
[]
+13.3 +12.5 95 +11 +11 1015.4 993.7 +9.7 +18.1 0.5
21 15.05 С 7 16 км 3/3 200 м
[]
+10.2 +8.0 86 +6 +7 1016.7 994.9
00 16.05 С 4 16 км ясно +8.6 +4.8 77 +6 +8 1017.0 995.2 +8.5 +18.0
03 16.05 СЗ 2 16 км ясно +7.7 +4.7 81 +6 +8 1018.4 996.4
06 16.05 С 2 16 км ясно +7.1 +4.6 84 +5 +6 1017.9 996.0 +6.8 +18.1 141
09 16.05 СЗ 1 16 км ясно +6.5 +5.6 94 +5 +6 1017.2 995.2
12 16.05 С 1 16 км ясно +9.8 +8.4 91 +9 +11 1018.5 996.5 +5.4 +18.1
15 16.05 С 2 16 км ясно +16.5 +12.4 77 +17 +21 1017.8 995.9
18 16.05 СВ 2 16 км ясно +22.6 +11.1 48 +25 +31 комфорт 1016.0 994.3 +5.4 +22.7
21 16.05 СВ 4 16 км ясно +23.3 +9.8 42 +25 +29 комфорт 1014.9 993.2
00 17.05 ЮВ 2 16 км ясно +22.5 +9.9 45 +24 +28 комфорт 1014.2 992.6 +5.4 +24.5
03 17.05 ЮЗ 2 16 км ясно +16.9 +14.0 83 +17 +19 1015.5 993.9
06 17.05 ЮЗ 2 16 км ясно +15.1 +12.1 82 +15 +16 1015.3 993.8 +5.4 +24.5
09 17.05 Ю 1 16 км ясно +12.0 +10.9 93 +13 +14 1015.2 993.6
12 17.05 С 5 16 км ясно +11.7 +8.2 79 +9 +10 1017.4 995.8 +10.2 +24.5
15 17.05 С 8 16 км ясно +10.9 +7.5 80 +7 +8 1019.3 997.5
18 17.05 С 7 16 км ясно +9.7 +5.7 76 +6 +7 1020.9 999.0 +9.6 +15.1
21 17.05 С 8 16 км ясно +9.7 +5.3 74 +6 +7 1021.0 999.0
00 18.05 С 6 16 км ясно +8.1 +4.0 75 +4 +5 1021.6 999.6 +8.1 +11.7
03 18.05 С 4 16 км ясно +8.1 +4.3 77 +5 +6 1023.0 1000.9
06 18.05 С 3 16 км ясно +9.0 +5.8 80 +7 +7 1022.9 1000.8 +7.8 +15.1 161
09 18.05 С 2 16 км ясно +8.0 +5.3 83 +7 +8 1022.5 1000.4
12 18.05 В 6 16 км ясно +12.5 +0.1 42 +10 +11 1023.3 1001.2 +7.4 +15.1
15 18.05 В 7 16 км ясно +17.7 +1.7 34 +17 +18 1024.2 1002.2
18 18.05 В 8 16 км ясно +22.4 +5.5 33 +23 +24 комфорт 1021.9 1000.1 +7.4 +22.4
21 18.05 В 7 16 км ясно +22.0 +5.1 33 +22 +24 комфорт 1020.2 998.4
00 19.05 В 4 16 км 10/0
[]
+19.5 +6.2 42 +20 +21 1019.4 997.7 +7.4 +23.1
03 19.05 ЮВ 5 16 км 10/0
[]
+15.3 +2.9 43 +14 +15 1019.0 997.3
06 19.05 ЮВ 4 16 км 9/0 2000 м
[]
+14.9 +5.9 55 +14 +14 1017.2 995.6 +7.4 +23.1 131
09 19.05 ЮВ 5 16 км слаб. дождь 10/0 2000 м
[]
+14.0 +9.9 76 +12 +13 1015.3 993.7
12 19.05 ЮВ 6 16 км 10/10 600 м
[]
+15.4 +13.8 90 +14 +14 1014.1 992.5 +13.7 +23.1
15 19.05 Ю 7 16 км {осадки} 10/10 300 м
[]
+16.9 +15.3 90 +16 +16 1012.5 990.9
18 19.05 Ю 6 16 км 10/10 600 м
[]
+21.5 +17.0 76 +25 +25 комфорт 1010.8 989.3 +13.7 +22.1 0.5
21 19.05 Ю 6 16 км 10/10 600 м
[]
+24.0 +18.6 72 +29 +29 душно 1008.9 987.5
00 20.05 ЮЗ 4 16 км {осадки} 9/9 600 м
[]
+21.4 +19.5 89 +26 +27 душно 1009.3 987.9 +13.7 +25.5 0.5
03 20.05 С 2 4800 м дымка {осадки} 10/10 50 м
[]
+12.8 +12.8 100 +12 +12 1012.6 991.0
06 20.05 СВ 5 3600 м дымка 10/10 50 м
[]
+9.3 +9.3 100 +6 +6 1014.9 993.2 +9.3 +25.5 0.3 201
09 20.05 С 5 16 км {осадки} 10/10 100 м
[]
+10.3 +10.2 99 +7 +7 1016.3 994.7
12 20.05 С 5 16 км 10/10 300 м
[]
+10.6 +9.6 94 +8 +8 1019.0 997.3 +8.7 +25.5
15 20.05 С 6 16 км {осадки} 10/10 100 м
[]
+9.8 +9.2 96 +6 +6 1021.5 999.5
18 20.05 С 4 16 км 10/10 300 м
[]
+9.1 +7.2 88 +6 +6 1023.4 1001.3 +8.1 +10.9 0.3

 

Местоположение метеостанции Chris Hadfield (Канада): широта 79.78 долгота -103.50 высота над уровнем моря 58 м.

В архиве по умолчанию представлена погода в Chris Hadfield за последнюю неделю. Архивные данные за месяц целиком и за предыдущие месяцы, начиная с января 2011 года, Вы можете получить, выбрав интересующий диапазон дат из раскрывающегося списка и нажав кнопку "Ввод!".


*Определитесь, кто Вы:
робот инопланетянин человек

Внимание! Время в таблицах - всемирное. Для получения местного времени необходимо прибавить поправку, которая в Chris Hadfield равна -7 ч.

Смотрите также архив погоды в соседних городах и на ближайших метеорологических станциях:

Погода в Isachsen (aut) (Канада) (111 км)
Погода в Eureka Climate (Канада) (343 км)
Погода в Eureka (Канада) (343 км)
Погода в Mould Bay Cs (Канада) (534 км)
Погода в Resolute Airport (Канада) (599 км)
Погода в Resolute Cs (Канада) (599 км)
Погода в Stefansson Island (Канада) (670 км)
Погода в Aulvik Ntl Park (Канада) (745 км)
Погода в Alert Climate (Канада) (747 км)
Погода в Kitsissut (Гренландия) (765 км)

Пояснения к столбцам:

Ветер - указаны скорость ветра в м/с - средняя за 10 мин, порывы в срок и между сроками (в фигурных скобках) и направление, откуда дует ветер: С - северный, СВ - северо-восточный, В - восточный, ЮВ - юго-восточный, Ю - южный, ЮЗ - юго-западный, З - западный, СЗ - северо-западный.
Видимость - горизонтальная дальность видимости в метрах или километрах. При видимости от 1 до 10 км при отсутствии осадков обычно наблюдается дымка, при ухудшении видимости до 1 км и менее - туман. В сухую погоду видимость может ухудшаться дымом, пылью или мглою.
Явления - указаны атмосферные явления, наблюдавшиеся в срок или в последний час перед сроком; фигурными скобками обозначены явления, наблюдавшиеся между сроками (за 1-3 часа до срока); квадратными скобками обозначены град или гололедные отложения с указанием их диаметра в мм.
Облачность - указаны через наклонную черту общая и нижняя облачность в баллах и высота нижней границы облаков в метрах; квадратными скобками обозначены формы облаков: Ci - перистые, Cs - перисто-слоистые, Cc - перисто-кучевые, Ac - высококучевые, As - высокослоистые, Sc - слоисто-кучевые, Ns - слоисто-дождевые, Cu - кучевые, Cb - кучево-дождевые. Подробнее классификацию облаков см. в Атласе облаков (PDF).
T - Температура воздуха - температура, измеренная на высоте 2 м над землей.
Td - Температура точки росы - температура, при понижении до которой содержащийся в воздухе водяной пар достигнет насыщения.
f - Относительная влажность воздуха - влажноcть воздуха, измеренная на высоте 2 м над землей.
Te - Эффективная температура - температура, которую ощущает одетый по сезону человек в тени. Характеристика душности погоды. При расчете учитывается влияние влажности воздуха и скорости ветра на теплоощущения человека.
Tes - Эффективная температура на солнце - температура, которую ощущает человек, с поправкой на солнечный нагрев. Характеристика знойности погоды. Зависит от высоты солнца над горизонтом, облачности и скорости ветра. Ночью, в пасмурную погоду, а также при ветре 12 м/с и более поправка равна нулю.
P - Атмосферное давление - приведенное к уровню моря атмосферное давление.
Po - Атмосферное давление - измеренное на уровне метеостанции атмосферное давление.
Tmin - Минимальная температура - минимум температуры воздуха на высоте 2 м над землей.
Tmax - Максимальная температура - максимум температуры воздуха на высоте 2 м над землей.
R - Количество осадков - Количество выпавших осадков за период времени, мм. При наведении курсора мыши на число - период времени, за который выпало указанное количество осадков.
R24 - Количество осадков - Количество выпавших осадков за 24 часа, мм.
S - Снежный покров - Высота снежного покрова, см. При наведении курсора мыши на число - состояние снежного покрова и степень покрытия местности в баллах.